This is the latest recevied weather packets stored in our database for station/object KD0SBN. If no packets are shown the sender has not sent any weather packets the latest 10 day(s).
| Time | Temp. | Humidity | Pressure | Rain* | Wind** | Luminosity | Snow |
|---|---|---|---|---|---|---|---|
| 1778134830 | 0.56° C | 92% | 1020 hPa | 0 mm | - | - | - |
| 1778134528 | 0.56° C | 92% | 1019.8 hPa | 0 mm | - | - | - |
| 1778134226 | 0.56° C | 91% | 1019.9 hPa | 0 mm | - | - | - |
| 1778133923 | 1.11° C | 91% | 1019.7 hPa | 0 mm | - | - | - |
| 1778133620 | 1.11° C | 90% | 1019.8 hPa | 0 mm | - | - | - |
| 1778133320 | 1.67° C | 90% | 1019.7 hPa | 0 mm | - | - | - |
| 1778133016 | 1.67° C | 90% | 1019.7 hPa | 0 mm | - | - | - |
| 1778132712 | 1.67° C | 90% | 1019.6 hPa | 0 mm | - | - | - |
| 1778132410 | 1.67° C | 89% | 1019.6 hPa | 0 mm | - | - | - |
| 1778132108 | 2.22° C | 89% | 1019.6 hPa | 0 mm | - | - | - |
| 1778131806 | 2.22° C | 89% | 1019.6 hPa | 0 mm | - | - | - |
| 1778131503 | 2.22° C | 89% | 1019.4 hPa | 0 mm | - | - | - |
| 1778131200 | 1.67° C | 89% | 1019.6 hPa | 0 mm | - | - | - |
| 1778130898 | 1.67° C | 89% | 1019.4 hPa | 0 mm | - | - | - |
| 1778130594 | 2.22° C | 88% | 1019.3 hPa | 0 mm | - | - | - |
| 1778130290 | 2.22° C | 88% | 1019.8 hPa | 0 mm | - | - | - |
| 1778129988 | 2.78° C | 88% | 1019.7 hPa | 0 mm | - | - | - |
| 1778129684 | 2.78° C | 88% | 1019.6 hPa | 0 mm | - | - | - |
| 1778129382 | 2.78° C | 87% | 1019.7 hPa | 0 mm | - | - | - |
| 1778129078 | 2.78° C | 87% | 1019.6 hPa | 0 mm | - | - | - |
| 1778128774 | 2.78° C | 87% | 1019.7 hPa | 0 mm | - | - | - |
| 1778128470 | 2.78° C | 86% | 1019.7 hPa | 0 mm | - | - | - |
| 1778128167 | 2.78° C | 87% | 1019.6 hPa | 0 mm | - | - | - |
| 1778127864 | 2.78° C | 87% | 1019.7 hPa | 0 mm | - | - | - |
| 1778127559 | 3.33° C | 86% | 1019.6 hPa | 0 mm | - | - | - |
* Rain latest hour (hover to see other rain measurements)
** Current wind speed in m/s (hover to see current wind gust speed)